Flag for Canada Weather past 2 weeks in Cornwall, Ontario, Canada

Now
72 °F

Mild.


Feels Like: 68 °F
Forecast: 60 / 80 °F
Wind: 3 mph from Southwest

Location: St Anicet

Current Time: Sep 3, 2015 at 1:43:09 AM

Latest Report: Sep 3, 2015 at 1:00 AM


Visibility: N/A

Pressure: 29.87 "Hg

Humidity: 93%

Dew point: 70 °F

Location of CornwallLocation

Historic Weather in Cornwall — Graph

°F

Cornwall temperature yesterday

Maximum temperature yesterday: 81 °F (at 5:00 PM)
Minimum temperature yesterday: 65 °F (at 5:00 AM)
Average temperature yesterday: 72 °F

Past Weeks' High & Low Weather Summary

 TemperatureHumidityPressure
High90 °F (Aug 19, 2:00 PM)100% (Aug 19, 2:00 AM)30.17 "Hg (Aug 19, 2:00 AM)
Low49 °F (Aug 28, 7:00 AM)45% (Aug 23, 5:00 PM)29.76 "Hg (Aug 24, 2:00 PM)
Average69 °F81%29.98 "Hg
* Reported Midnight between Aug 18 and Aug 19 — Midnight between Sep 2 and Sep 3, Cornwall, Weather by CustomWeather, © 2015

Note: Actual official high and low records may vary slightly from our data, if they occured in-between our weather recording intervals... More about our weather records

Advertising

Cornwall weather history for previous 24 hours

 ConditionsComfort  
Time TempWeatherWind HumidityBarometerVisibility
12:00 AM
Thu, Sep 3
71 °FMild.3 mph93%29.87 "HgN/A
11:00 PM
Wed, Sep 2
71 °FMild.3 mph95%29.88 "HgN/A
10:00 PM73 °FMild.2 mph92%29.88 "HgN/A
9:00 PM69 °FMild.2 mph100%29.87 "HgN/A
8:00 PM73 °FMild.1 mph93%29.87 "HgN/A
7:00 PM77 °FWarm.3 mph83%29.88 "HgN/A
6:00 PM80 °FWarm.7 mph76%29.88 "HgN/A
5:00 PM81 °FWarm.6 mph74%29.89 "HgN/A
4:00 PM81 °FWarm.7 mph75%29.90 "HgN/A
3:00 PM81 °FWarm.6 mph75%29.92 "HgN/A
2:00 PM78 °FWarm.8 mph77%29.94 "HgN/A
1:00 PM77 °FMild.8 mph81%29.96 "HgN/A
12:00 PM76 °FMild.9 mph82%29.97 "HgN/A
11:00 AM73 °FMild.8 mph87%29.97 "HgN/A
10:00 AM71 °FMild.8 mph93%29.97 "HgN/A
9:00 AM69 °FMild.6 mph98%29.98 "HgN/A
8:00 AM68 °FMild.9 mph96%29.98 "HgN/A
7:00 AM67 °FMild.5 mph96%29.97 "HgN/A
6:00 AM66 °FMild.5 mph96%29.98 "HgN/A
5:00 AM65 °FMild.3 mph96%29.97 "HgN/A
4:00 AM67 °FMild.5 mph93%29.96 "HgN/A
3:00 AM67 °FMild.5 mph94%29.97 "HgN/A
2:00 AM67 °FMild.3 mph96%29.98 "HgN/A
1:00 AM67 °FMild.5 mph97%29.99 "HgN/A
Weather by CustomWeather, © 2015

See weather overviewHow to use our weather pages